Date,TemperatureHighF,TemperatureAvgF,TemperatureLowF,DewpointHighF,DewpointAvgF,DewpointLowF,HumidityHigh,HumidityAvg,HumidityLow,PressureMaxIn,PressureMinIn,WindSpeedMaxMPH,WindSpeedAvgMPH,GustSpeedMaxMPH,PrecipitationSumIn
2013-2-1,69,48,33,47,39,32,95,76,31,0.00,40.00,8,4,0,0.00
2013-2-2,55,44,38,47,41,37,95,90,73,0.00,40.00,9,2,0,0.00
2013-2-3,58,49,41,46,43,40,94,82,61,0.00,40.00,8,3,0,0.00
2013-2-4,61,45,36,46,41,35,95,87,56,0.00,40.00,14,4,0,0.00
2013-2-5,53,46,42,46,42,39,94,85,71,0.00,40.00,6,2,0,0.00
2013-2-6,56,42,32,42,37,31,96,83,54,0.00,40.00,5,2,0,0.00
2013-2-7,49,43,38,42,38,35,95,85,60,0.00,40.00,6,2,0,0.00
2013-2-8,52,49,40,39,34,28,94,60,39,0.00,40.00,6,4,0,0.00
2013-2-9,57,40,28,35,30,24,96,73,35,0.00,40.00,4,2,0,0.00
2013-2-10,58,42,30,36,32,28,95,73,33,0.00,40.00,5,3,0,0.00
2013-2-11,56,39,30,40,34,29,95,85,47,0.00,40.00,5,3,0,0.00
2013-2-12,60,44,33,41,36,32,95,77,47,0.00,40.00,6,3,0,0.00
2013-2-13,64,46,31,46,38,30,95,78,41,0.00,40.00,5,3,0,0.00
2013-2-14,72,50,36,47,42,35,95,76,35,0.00,40.00,6,3,0,0.00
2013-2-15,74,54,38,44,39,33,94,63,25,0.00,40.00,7,3,0,0.00
2013-2-16,71,50,38,45,40,35,94,72,32,0.00,40.00,5,4,0,0.00
2013-2-17,63,45,32,44,37,31,95,76,42,0.00,40.00,38,4,0,0.00
2013-2-18,54,41,32,41,36,31,95,82,55,0.00,40.00,30,4,0,0.00
2013-2-19,45,41,37,39,35,29,94,78,53,0.00,40.00,13,3,0,0.00
2013-2-20,53,41,29,35,31,28,94,69,39,0.00,40.00,10,4,0,0.00
2013-2-21,58,48,41,36,34,26,75,60,30,0.00,40.00,13,3,0,0.00
2013-2-22,62,47,34,42,37,32,91,70,39,0.00,40.00,5,2,0,0.00
2013-2-23,53,46,38,43,33,27,93,62,37,0.00,40.00,11,4,0,0.00
2013-2-24,62,45,30,41,34,27,95,70,29,0.00,40.00,5,2,0,0.00
2013-2-25,63,48,36,37,32,22,92,62,20,0.00,40.00,14,3,0,0.00
2013-2-26,64,44,30,38,33,27,94,68,31,0.00,40.00,5,3,0,0.00
2013-2-27,66,49,32,44,36,29,93,65,31,0.00,40.00,11,3,0,0.00
2013-2-28,67,54,44,51,47,42,94,79,53,0.00,40.00,4,2,0,0.00